Regional Weather Roundup
Issued by NWS

Home | Current Version | Previous Version | Text Only | Print | Product List | Glossary Off
Versions: 1 2 3 4 5 6 7 8 9 10 11 12 13 14 15 16 17 18 19 20 21 22 23 24 25 26 27 28 29 30 31 32 33 34 35 36 37 38 39 40 41 42 43 44 45 46 47 48 49 50

000
ASUS43 KLSX 240807
RWRMO

WEATHER SUMMARY FOR MISSOURI
NATIONAL WEATHER SERVICE SPRINGFIELD MO
300 AM CDT MON APR 24 2017

NOTE: "FAIR" INDICATES FEW OR NO CLOUDS BELOW 12,000 FEET WITH NO
       SIGNIFICANT WEATHER AND/OR OBSTRUCTIONS TO VISIBILITY.
       CURRENT SKY AND/OR WEATHER CONDITIONS ARE NOT AVAILABLE FOR
       CHILLICOTHE AND FARMINGTON.

MOZ001>031-035>038-043-044-053-054-240900-
...NORTHERN AND WESTERN MISSOURI...

CITY           SKY/WX    TMP DP  RH WIND       PRES   REMARKS
KANSAS CTY INT PTCLDY    45  36  70 S8        29.92F
KANSAS C DTWN  CLOUDY    53  41  63 N3        29.93F
LEE`S SUMMIT   CLOUDY    53  36  52 S5        29.94F
ST JOSEPH      CLOUDY    45  42  89 S3        29.92F
CHILLICOTHE      N/A     43  38  82 CALM      29.95F
KIRKSVILLE     CLOUDY    47  30  51 S5        29.96F

$$
MOZ066>068-077>081-088>096-101>105-240900-
...SOUTHWEST MISSOURI...

CITY           SKY/WX    TMP DP  RH WIND       PRES   REMARKS
SPRINGFIELD    CLEAR     41  37  86 CALM      29.96F
JOPLIN         CLEAR     42  42 100 CALM      29.96F
BRANSON        CLEAR     41  37  87 CALM      29.97F

$$
MOZ032>034-039>042-045>050-055>058-069>072-240900-
...CENTRAL MISSOURI...

CITY           SKY/WX    TMP DP  RH WIND       PRES   REMARKS
COLUMBIA       CLEAR     51  29  42 CALM      29.96F
JEFFERSON CITY CLEAR     41  36  82 CALM      29.96F
ROLLA          CLEAR     46  32  58 CALM      29.95F
WHITEMAN AFB   PTCLDY    44  44  99 S2        29.94F
OSAGE BEACH    CLEAR     38  37  97 CALM      29.97F

$$
MOZ051-052-059>065-240900-
...EAST CENTRAL MISSOURI...

CITY           SKY/WX    TMP DP  RH WIND       PRES   REMARKS
ST LOUIS INTL  PTCLDY    48  36  63 CALM      29.96F
SPIRIT OF STL  CLEAR     40  39  97 CALM      29.96F
ST CHARLES     CLEAR     46  41  82 CALM      29.95F

$$
MOZ072>076-082>087-097>100-106>115-240900-
...SOUTH CENTRAL AND SOUTHEAST MISSOURI...

CITY           SKY/WX    TMP DP  RH WIND       PRES   REMARKS
CAPE GIRARDEAU CLEAR     42  39  89 W5        29.91F
FARMINGTON     CLEAR     41  36  82 CALM      29.95F
POPLAR BLUFF   CLEAR     49  39  68 N6        29.90F
WEST PLAINS    CLEAR     45  33  63 CALM      29.95F

$$



USA.gov is the U.S. government's official web portal to all federal, state and local government web resources and services.